| time (UTC) | temp C | wind direction | speed KPH | gust KPH | rain 1hr cm | rain 24hr cm | rain mn cm | humidity % | barometer mb |
| 20260906224550 | 18 | 342 | 8.0 | 17.7 | 0.00 | 0.00 | 0.00 | 70 | 1011.0 |
| 20260906223046 | 19 | 304 | 6.4 | 14.5 | 0.00 | 0.00 | 0.00 | 70 | 1011.1 |
| 20260906221554 | 19 | 342 | 8.0 | 16.1 | 0.00 | 0.00 | 0.00 | 70 | 1011.0 |
| 20260906220044 | 18 | 348 | 3.2 | 16.1 | 0.00 | 0.00 | 0.00 | 71 | 1011.0 |
| 20260906214544 | 18 | 305 | 9.7 | 17.7 | 0.00 | 0.00 | 0.00 | 71 | 1011.0 |
| 20260906213049 | 18 | 346 | 9.7 | 16.1 | 0.00 | 0.00 | 0.00 | 71 | 1011.1 |
| 20260906211543 | 18 | 319 | 4.8 | 16.1 | 0.00 | 0.00 | 0.00 | 71 | 1011.0 |
| 20260906210041 | 18 | 355 | 4.8 | 9.7 | 0.00 | 0.00 | 0.00 | 70 | 1011.3 |
| 20260906204557 | 18 | 5 | 3.2 | 12.9 | 0.00 | 0.00 | 0.00 | 70 | 1011.4 |
| 20260906203039 | 18 | 339 | 1.6 | 17.7 | 0.00 | 0.00 | 0.00 | 71 | 1011.4 |
| 20260906201548 | 18 | 60 | 4.8 | 12.9 | 0.00 | 0.00 | 0.00 | 71 | 1011.4 |
| 20260906200037 | 18 | 52 | 6.4 | 14.5 | 0.00 | 0.00 | 0.00 | 71 | 1011.4 |
| 20260906194534 | 18 | 65 | 8.0 | 17.7 | 0.00 | 0.00 | 0.00 | 72 | 1011.3 |
| 20260906193033 | 17 | 39 | 9.7 | 22.5 | 0.00 | 0.00 | 0.00 | 72 | 1011.3 |
| 20260906191530 | 17 | 61 | 12.9 | 22.5 | 0.00 | 0.00 | 0.00 | 72 | 1011.6 |
| 20260906190027 | 16 | 61 | 16.1 | 30.6 | 0.00 | 0.00 | 0.00 | 72 | 1011.8 |
| 20260906184522 | 16 | 334 | 16.1 | 32.2 | 0.00 | 0.00 | 0.00 | 72 | 1012.2 |
| 20260906183019 | 15 | 347 | 14.5 | 27.4 | 0.00 | 0.00 | 0.00 | 74 | 1012.8 |
| 20260906181518 | 15 | 23 | 14.5 | 30.6 | 0.00 | 0.00 | 0.00 | 74 | 1013.0 |
| 20260906180022 | 15 | 355 | 12.9 | 35.4 | 0.00 | 0.00 | 0.00 | 75 | 1013.2 |
| 20260906174518 | 14 | 325 | 17.7 | 30.6 | 0.00 | 0.00 | 0.00 | 75 | 1013.5 |
| 20260906173014 | 14 | 17 | 16.1 | 29.0 | 0.00 | 0.00 | 0.00 | 73 | 1013.7 |
| 20260906171514 | 14 | 330 | 14.5 | 27.4 | 0.00 | 0.00 | 0.00 | 71 | 1013.5 |
| 20260906170014 | 14 | 12 | 14.5 | 24.1 | 0.00 | 0.00 | 0.00 | 72 | 1013.7 |
| 20260906164512 | 15 | 325 | 12.9 | 20.9 | 0.00 | 0.00 | 0.00 | 73 | 1013.7 |
| 20260906163010 | 15 | 5 | 8.0 | 14.5 | 0.00 | 0.00 | 0.00 | 72 | 1013.9 |
| 20260906161515 | 15 | 68 | 6.4 | 12.9 | 0.00 | 0.00 | 0.00 | 71 | 1013.9 |
| 20260906160008 | 15 | 23 | 4.8 | 12.9 | 0.00 | 0.00 | 0.00 | 71 | 1014.0 |
| 20260906154507 | 15 | 54 | 4.8 | 12.9 | 0.00 | 0.00 | 0.00 | 71 | 1014.0 |
| 20260906153007 | 15 | 77 | 6.4 | 17.7 | 0.00 | 0.00 | 0.00 | 72 | 1013.9 |
| 20260906151506 | 15 | 52 | 6.4 | 17.7 | 0.00 | 0.00 | 0.00 | 72 | 1014.2 |
| 20260906150011 | 15 | 78 | 9.7 | 19.3 | 0.00 | 0.00 | 0.00 | 72 | 1014.0 |
| 20260906144507 | 15 | 63 | 4.8 | 17.7 | 0.00 | 0.00 | 0.00 | 71 | 1013.9 |
| 20260906143113 | 15 | 43 | 4.8 | 11.3 | 0.00 | 0.00 | 0.00 | 71 | 1014.3 |
| 20260906141601 | 15 | 45 | 6.4 | 11.3 | 0.00 | 0.00 | 0.00 | 71 | 1014.5 |
| 20260906140059 | 15 | 360 | 3.2 | 9.7 | 0.00 | 0.00 | 0.00 | 70 | 1014.5 |
| 20260906134559 | 15 | 9 | 4.8 | 9.7 | 0.00 | 0.00 | 0.00 | 71 | 1014.6 |
| 20260906133059 | 15 | 10 | 6.4 | 12.9 | 0.00 | 0.00 | 0.00 | 71 | 1014.3 |
| 20260906131557 | 15 | 29 | 4.8 | 11.3 | 0.00 | 0.00 | 0.00 | 69 | 1014.6 |
| 20260906130055 | 14 | 323 | 6.4 | 16.1 | 0.00 | 0.00 | 0.00 | 67 | 1014.6 |
| 20260906124552 | 14 | 11 | 6.4 | 16.1 | 0.00 | 0.00 | 0.00 | 66 | 1014.3 |
| 20260906123052 | 13 | 348 | 8.0 | 12.9 | 0.00 | 0.00 | 0.00 | 63 | 1014.5 |
| 20260906121556 | 13 | 334 | 6.4 | 12.9 | 0.00 | 0.00 | 0.00 | 63 | 1014.4 |
| 20260906120109 | 13 | 12 | 9.7 | 16.1 | 0.00 | 0.00 | 0.00 | 62 | 1014.1 |
| 20260906114548 | 13 | 5 | 6.4 | 17.7 | 0.00 | 0.00 | 0.00 | 61 | 1014.4 |
| 20260906113052 | 13 | 336 | 8.0 | 19.3 | 0.00 | 0.00 | 0.00 | 61 | 1014.5 |
| 20260906111604 | 13 | 324 | 9.7 | 19.3 | 0.00 | 0.00 | 0.00 | 61 | 1014.4 |
| 20260906110045 | 13 | 325 | 8.0 | 19.3 | 0.00 | 0.00 | 0.00 | 61 | 1014.4 |
| 20260906104544 | 13 | 320 | 14.5 | 24.1 | 0.00 | 0.00 | 0.00 | 61 | 1014.6 |
| 20260906103044 | 13 | 341 | 11.3 | 19.3 | 0.00 | 0.00 | 0.00 | 61 | 1014.8 |
| 20260906101542 | 13 | 325 | 12.9 | 25.7 | 0.00 | 0.00 | 0.00 | 60 | 1014.7 |
| 20260906100041 | 13 | 360 | 14.5 | 29.0 | 0.00 | 0.00 | 0.00 | 60 | 1014.8 |
| 20260906094542 | 12 | 342 | 11.3 | 27.4 | 0.00 | 0.00 | 0.00 | 60 | 1014.9 |
| 20260906093041 | 12 | 333 | 14.5 | 30.6 | 0.00 | 0.00 | 0.00 | 60 | 1014.9 |
| 20260906091536 | 12 | 355 | 12.9 | 22.5 | 0.00 | 0.00 | 0.00 | 60 | 1014.9 |
| 20260906090034 | 12 | 342 | 12.9 | 27.4 | 0.00 | 0.00 | 0.00 | 62 | 1015.0 |
| 20260906084543 | 12 | 310 | 9.7 | 22.5 | 0.00 | 0.00 | 0.00 | 65 | 1015.1 |
| 20260906083035 | 12 | 350 | 12.9 | 22.5 | 0.00 | 0.00 | 0.00 | 67 | 1015.0 |
| 20260906081525 | 13 | 347 | 11.3 | 20.9 | 0.00 | 0.00 | 0.00 | 68 | 1015.1 |
| 20260906080029 | 13 | 334 | 11.3 | 20.9 | 0.00 | 0.00 | 0.00 | 71 | 1015.2 |
| 20260906074519 | 13 | 319 | 12.9 | 22.5 | 0.00 | 0.00 | 0.00 | 72 | 1015.4 |
| 20260906073016 | 13 | 13 | 11.3 | 25.7 | 0.00 | 0.00 | 0.00 | 73 | 1015.7 |
| 20260906071513 | 13 | 360 | 14.5 | 22.5 | 0.00 | 0.00 | 0.00 | 73 | 1016.0 |
| 20260906070011 | 13 | 355 | 12.9 | 19.3 | 0.00 | 0.00 | 0.00 | 73 | 1016.1 |
| 20260906064514 | 14 | 19 | 11.3 | 19.3 | 0.00 | 0.00 | 0.00 | 73 | 1016.2 |
| 20260906063007 | 13 | 9 | 11.3 | 19.3 | 0.00 | 0.00 | 0.00 | 73 | 1016.3 |
| 20260906061506 | 13 | 17 | 9.7 | 20.9 | 0.00 | 0.00 | 0.00 | 72 | 1016.3 |
| 20260906060004 | 13 | 5 | 11.3 | 17.7 | 0.00 | 0.00 | 0.00 | 73 | 1016.4 |
| 20260906054502 | 13 | 315 | 9.7 | 22.5 | 0.00 | 0.00 | 0.00 | 74 | 1016.5 |
| 20260906053002 | 14 | 346 | 9.7 | 19.3 | 0.00 | 0.00 | 0.00 | 74 | 1016.4 |
| 20260906051501 | 14 | 17 | 9.7 | 19.3 | 0.00 | 0.00 | 0.00 | 74 | 1016.5 |
| 20260906050100 | 14 | 331 | 11.3 | 22.5 | 0.00 | 0.00 | 0.00 | 74 | 1016.3 |
| 20260906044557 | 15 | 327 | 12.9 | 27.4 | 0.00 | 0.00 | 0.00 | 73 | 1015.7 |
| 20260906043059 | 15 | 11 | 20.9 | 30.6 | 0.00 | 0.00 | 0.00 | 73 | 1015.7 |
| 20260906041602 | 15 | 360 | 16.1 | 27.4 | 0.00 | 0.00 | 0.00 | 73 | 1015.7 |
| 20260906040056 | 15 | 320 | 16.1 | 27.4 | 0.00 | 0.00 | 0.00 | 72 | 1015.7 |
| 20260906034557 | 15 | 5 | 11.3 | 20.9 | 0.00 | 0.00 | 0.00 | 72 | 1015.7 |
| 20260906033055 | 15 | 346 | 14.5 | 24.1 | 0.00 | 0.00 | 0.00 | 71 | 1015.3 |
| 20260906031554 | 15 | 341 | 17.7 | 27.4 | 0.00 | 0.00 | 0.00 | 70 | 1015.0 |
| 20260906030054 | 15 | 355 | 16.1 | 25.7 | 0.00 | 0.00 | 0.00 | 70 | 1014.5 |
| 20260906024608 | 16 | 347 | 14.5 | 25.7 | 0.00 | 0.00 | 0.00 | 69 | 1014.4 |
| 20260906023054 | 16 | 360 | 12.9 | 25.7 | 0.00 | 0.00 | 0.00 | 68 | 1014.4 |
| 20260906021553 | 16 | 5 | 12.9 | 29.0 | 0.00 | 0.00 | 0.00 | 67 | 1014.2 |
| 20260906020052 | 16 | 338 | 14.5 | 25.7 | 0.00 | 0.00 | 0.00 | 65 | 1014.2 |
| 20260906014602 | 17 | 355 | 12.9 | 27.4 | 0.00 | 0.00 | 0.00 | 64 | 1014.3 |
| 20260906013052 | 17 | 343 | 14.5 | 27.4 | 0.00 | 0.00 | 0.00 | 62 | 1014.2 |
| 20260906011551 | 18 | 16 | 17.7 | 29.0 | 0.00 | 0.00 | 0.00 | 60 | 1014.2 |
| 20260906010051 | 18 | 355 | 16.1 | 32.2 | 0.00 | 0.00 | 0.00 | 58 | 1014.0 |
| 20260906004550 | 20 | 315 | 16.1 | 30.6 | 0.00 | 0.00 | 0.00 | 54 | 1014.1 |
| 20260906003108 | 21 | 346 | 17.7 | 33.8 | 0.00 | 0.00 | 0.00 | 49 | 1013.9 |
| 20260906001550 | 22 | 327 | 11.3 | 22.5 | 0.00 | 0.00 | 0.00 | 40 | 1014.0 |
| 20260906000053 | 22 | 360 | 14.5 | 25.7 | 0.00 | 0.00 | 0.00 | 38 | 1014.1 |
| 20260905234548 | 23 | 360 | 9.7 | 22.5 | 0.00 | 0.00 | 0.00 | 39 | 1014.1 |
| 20260905233048 | 23 | 25 | 9.7 | 20.9 | 0.00 | 0.00 | 0.00 | 38 | 1014.1 |
| 20260905231547 | 23 | 26 | 9.7 | 19.3 | 0.00 | 0.00 | 0.00 | 37 | 1013.9 |
| 20260905230046 | 23 | 342 | 12.9 | 24.1 | 0.00 | 0.00 | 0.00 | 36 | 1013.9 |